Regional Weather Roundup
Issued by NWS

Home | Current Version | Previous Version | Text Only | Print | Product List | Glossary On
Versions: 1 2 3 4 5 6 7 8 9 10 11 12 13 14 15 16 17 18 19 20 21 22 23 24 25
000
ASCA42 TJSJ 180710
RWRPR
PUERTO RICO/U.S. VIRGIN ISLANDS HOURLY WEATHER ROUNDUP
NATIONAL WEATHER SERVICE SAN JUAN PR
300 AM AST SUN FEB 18 2018

PRZ001>002-007>008-010-180800-
PUERTO RICO

CITY           SKY/WX    TMP DP  RH WIND       PRES   REMARKS
SAN JUAN LMM   PTCLDY    72  70  94 SE3       30.08F
$$

VIZ001>002-180800-
U.S. VIRGIN ISLANDS

CITY           SKY/WX    TMP DP  RH WIND       PRES   REMARKS
CHARLOTTE AMA  MOCLDY    73  70  88 E6        30.08F
CHRISTIANSTED  PTCLDY    72  68  88 NE7       30.08F
$$

HOURLY WEATHER ROUNDUP FOR THE NEWS MEDIA

CITY           SKY/WX    TMP DP  RH WIND       PRES   REMARKS
ORLANDO        FAIR      65  60  84 SW3       30.20R
NEW YORK       CLOUDY    33  33 100 CALM      29.97F
NEWARK         CLOUDY    34  32  92 NW7       29.97S WCI  28
CHICAGO        FAIR      26  21  81 W6        30.18R WCI  19
HARTFORD       LGT RAIN  34  34 100 CALM      29.91F FOG
BOSTON         LGT SNOW  32  32 100 NE6       29.95F FOG     WCI  26
DALLAS         CLOUDY    51  47  86 E5        30.17F
PHILADELPHIA   CLOUDY    34  32  92 W8        30.02  WCI  27
LOS ANGELES    PTCLDY    58  51  78 SW8       30.04R
WASHINGTON DC  FLURRIES  32  32 100 CALM      30.06R



USA.gov is the U.S. government's official web portal to all federal, state and local government web resources and services.